FW7456 Weather Reports


time (UTC)temp
C
wind
direction
speed
KPH
gust
KPH
rain 1hr
cm
rain 24hr
cm
rain mn
cm
humidity
%
barometer
mb
20220812003108 23 355 4.8 8.0 0.00 0.03 0.03 85 1018.4
20220812001632 23 337 3.2 9.7 0.00 0.03 0.03 83 1017.9
20220812000103 24 173 1.6 6.4 0.00 0.03 0.03 83 1017.8
20220811234605 24 154 3.2 11.3 0.00 0.03 0.03 84 1017.6
20220811233111 24 185 3.2 11.3 0.00 0.03 0.03 83 1017.7
20220811231604 25 0 0.0 9.7 0.00 0.03 0.03 82 1017.4
20220811230115 25 244 12.9 24.1 0.00 0.03 0.03 81 1017.2
20220811224607 25 238 16.1 32.2 0.00 0.03 0.03 83 1017.2
20220811223111 26 220 12.9 20.9 0.00 0.03 0.03 80 1017.3
20220811221603 26 223 9.7 17.7 0.00 0.03 0.03 78 1017.7
20220811220112 26 217 8.0 16.1 0.00 0.03 0.03 79 1017.7
20220811214601 25 227 6.4 19.3 0.00 0.03 0.03 80 1017.9
20220811213058 26 188 9.7 17.7 0.00 0.03 0.03 79 1017.9
20220811211556 26 219 6.4 16.1 0.00 0.03 0.03 78 1017.7
20220811210056 26 159 6.4 17.7 0.00 0.03 0.03 75 1017.7
20220811204714 27 215 11.3 20.9 0.00 0.03 0.03 70 1017.5
20220811203209 27 215 12.9 19.3 0.00 0.03 0.03 73 1017.7
20220811201606 27 189 6.4 11.3 0.00 0.03 0.03 74 1018.0
20220811200111 27 243 3.2 19.3 0.00 0.03 0.03 72 1018.2
20220811194610 25 225 11.3 19.3 0.00 0.03 0.03 81 1018.7
20220811193110 25 247 11.3 20.9 0.00 0.03 0.03 80 1018.7
20220811191618 26 170 4.8 9.7 0.00 0.03 0.03 79 1018.7
20220811190114 26 155 8.0 16.1 0.00 0.03 0.03 78 1018.6
20220811184608 28 162 6.4 17.7 0.00 0.03 0.03 68 1018.8
20220811183120 26 177 6.4 14.5 0.00 0.03 0.03 73 1018.8
20220811181605 27 174 8.0 22.5 0.00 0.03 0.03 70 1019.1
20220811180109 27 207 8.0 14.5 0.00 0.03 0.03 69 1019.3
20220811174641 27 187 6.4 11.3 0.00 0.03 0.03 70 1019.6
20220811173107 27 126 8.0 14.5 0.00 0.03 0.03 74 1019.6
20220811171558 28 237 3.2 12.9 0.00 0.03 0.03 70 1019.7
20220811170104 27 0 4.8 12.9 0.00 0.03 0.03 72 1019.9
20220811164600 27 246 4.8 11.3 0.00 0.03 0.03 70 1020.1
20220811163100 27 234 1.6 8.0 0.00 0.03 0.03 75 1020.3
20220811161605 27 224 3.2 9.7 0.00 0.03 0.03 77 1020.6
20220811160110 26 177 4.8 9.7 0.00 0.03 0.03 80 1020.6
20220811154559 24 0 3.2 8.0 0.00 0.03 0.03 85 1020.7
20220811153109 23 0 0.0 4.8 0.00 0.03 0.03 88 1020.8
20220811151607 23 331 0.0 3.2 0.00 0.03 0.03 89 1020.7
20220811150103 23 0 0.0 3.2 0.00 0.03 0.03 88 1020.5
20220811144608 23 331 3.2 6.4 0.03 0.03 0.03 89 1020.4
20220811143115 23 0 0.0 0.0 0.03 0.03 0.03 89 1020.3
20220811141602 23 0 0.0 0.0 0.03 0.03 0.03 89 1020.3
20220811140110 23 0 0.0 1.6 0.03 0.03 0.03 87 1020.0
20220811134600 23 331 0.0 1.6 0.00 0.00 0.00 86 1020.1
20220811133218 22 0 0.0 1.6 0.00 0.00 0.00 90 1020.2
20220811131612 21 331 1.6 4.8 0.00 0.00 0.00 94 1020.4
20220811130100 21 331 1.6 3.2 0.00 0.00 0.00 96 1020.2
20220811124603 20 330 4.8 8.0 0.00 0.00 0.00 96 1020.3
20220811123104 20 223 1.6 4.8 0.00 0.00 0.00 97 1020.1
20220811121613 20 223 1.6 6.4 0.00 0.00 0.00 97 1020.2
20220811120108 20 0 0.0 0.0 0.00 0.00 0.00 97 1020.0
20220811114603 20 0 0.0 0.0 0.00 0.00 0.00 97 1020.1
20220811113136 20 0 0.0 0.0 0.00 0.00 0.00 96 1020.2
20220811111558 20 0 0.0 4.8 0.00 0.00 0.00 96 1020.0
20220811110058 20 0 0.0 0.0 0.00 0.00 0.00 96 1020.0
20220811104608 20 223 0.0 4.8 0.00 0.00 0.00 97 1019.9
20220811103058 20 223 1.6 4.8 0.00 0.00 0.00 97 1019.8
20220811101559 20 0 0.0 3.2 0.00 0.00 0.00 96 1020.0
20220811100107 20 223 1.6 4.8 0.00 0.00 0.00 97 1020.0
20220811094621 20 223 0.0 3.2 0.00 0.00 0.00 97 1019.9
20220811093106 20 0 0.0 3.2 0.00 0.00 0.00 97 1019.9
20220811091616 20 223 3.2 4.8 0.00 0.00 0.00 97 1019.9
20220811090106 20 223 0.0 4.8 0.00 0.00 0.00 97 1019.9
20220811084559 20 0 0.0 0.0 0.00 0.00 0.00 97 1019.8
20220811083111 20 0 0.0 0.0 0.00 0.00 0.00 96 1019.7
20220811081613 20 0 0.0 0.0 0.00 0.00 0.00 96 1019.8
20220811080113 20 0 0.0 3.2 0.00 0.00 0.00 96 1020.0
20220811074607 20 0 0.0 6.4 0.00 0.00 0.00 96 1020.0
20220811073104 20 0 0.0 4.8 0.00 0.00 0.00 96 1020.1
20220811071559 20 0 0.0 6.4 0.00 0.00 0.00 96 1020.2
20220811070105 20 315 3.2 9.7 0.00 0.00 0.00 96 1020.2
20220811064607 20 332 1.6 6.4 0.00 0.00 0.00 97 1020.6
20220811063131 20 0 0.0 0.0 0.00 0.00 0.00 96 1020.8
20220811061555 20 0 0.0 0.0 0.00 0.00 0.00 96 1021.2
20220811060118 20 0 0.0 4.8 0.00 0.00 0.00 96 1021.3
20220811054556 20 0 0.0 3.2 0.00 0.00 0.00 95 1021.5
20220811053107 20 0 0.0 4.8 0.00 0.00 0.00 94 1021.7
20220811051635 20 0 0.0 6.4 0.00 0.00 0.00 95 1021.8
20220811050105 20 180 4.8 9.7 0.00 0.00 0.00 94 1021.9
20220811044608 20 0 0.0 6.4 0.00 0.00 0.00 95 1022.0
20220811043111 20 316 1.6 4.8 0.00 0.00 0.00 95 1022.0
20220811041559 20 0 0.0 4.8 0.00 0.00 0.00 96 1021.9
20220811040118 20 0 0.0 3.2 0.00 0.00 0.00 95 1021.9
20220811033210 20 309 3.2 6.4 0.00 0.00 0.00 95 1022.2
20220811030108 20 302 4.8 8.0 0.00 0.00 0.00 95 1022.3
20220811024604 20 261 0.0 3.2 0.00 0.00 0.00 96 1022.3
20220811023111 20 261 0.0 4.8 0.00 0.00 0.00 96 1022.3
20220811021605 20 296 1.6 6.4 0.00 0.00 0.00 96 1022.3
20220811020059 20 0 0.0 4.8 0.00 0.00 0.00 96 1022.1
20220811014603 21 0 0.0 0.0 0.00 0.00 0.00 96 1021.8
20220811013109 21 296 1.6 4.8 0.00 0.00 0.00 96 1021.7
20220811011558 21 296 3.2 6.4 0.00 0.00 0.00 96 1021.5
20220811010105 21 296 3.2 8.0 0.00 0.00 0.00 96 1021.3
20220811004605 21 327 3.2 6.4 0.00 0.00 0.00 95 1021.1